Showing default

FENGYUN 1C, 25730

Orbit data source: Space-Track

FENGYUN 1C, 25730 is a payload satellite owned by CNMSC (CN) in SSO that was launched on Mon, 10 May 1999 UTC via a CHANG ZHENG 4B launch vehicle from the Taiyaun Space Center, China (TSC). Payload-class satellites include a variety of spacecraft equipped with specific instruments for various scientific and technological missions. These include communications satellites like Starlink; space stations such as the ISS; scientific satellites like the Hubble; Earth observation satellites from companies like Planet Labs, Umbra, and HawkEye 360; GPS; miniature CubeSats for education and research; and military/defense satellites.

Loading next visibility...
Identifier
25730, 1999-025A
Orbit
SSO
Last TLE update
6 hours ago
Origin
Manufacturer
SISE
Mission
Non-operational Civil Imaging
Bus & Motor
FY-1, Unknown motor
Mass
958 kg wet, ~958 kg dry
Launch date (UTC)
1999-05-10 (26 years ago)
Launch vehicle
CHANG ZHENG 4B
Launch site
Taiyaun Space Center, China (TSC)
Object type
Payload
Rocket body
Debris
Shape & HBR
Box + 2 Pan, 8.6 m
Radar Cross Section
5.659 m², Medium (>0.1 m² and < 1m²)

Expand to show TLE details & history

TLE from 6 hours ago
0 FENGYUN 1C
1 25730U 99025A   25186.79684431  .00001307  00000-0  57685-3 0  9991
2 25730  98.8996 250.6225 0012912 154.2338 323.0126 14.25065265348942
Epoch: 2025-07-05T19:07Z
TLE epoch observation values (Epoch: 2025-07-05T19:07:27.348Z)
Latitude
61.6224°
Longitude
-123.51271°
Altitude
811.37 km
Speed
7.457 km/s
True Right ascension
05h 49m 31s
True Declination
61° 28' 46"
Sunlit
Object was in daylight at epoch
Visualization orbit readout
Latitude
-36.42913°
Longitude
-146.63922°
Altitude
817.839 km
Speed
7.445 km/s
Apparent Right ascension
02h 36m 12s
Apparent Declination
-41° 17' 40"
Sunlit
Object is in daylight
Visualization observer readout
Local Sidereal Time
12:35:12
Azimuth
256.668° W
Elevation
-67.108°
Doppler factor
1
Orbital elements
Apogee altitude
814.71 km
Perigee altitude
796.159 km
Semi-major axis
7,183.571 km
Eccentricity
0.00129
Inclination
98.8996°
RAAN
250.6225°
Arg. of periapsis
154.2338°
True anomaly
Unknown
Mean anomaly
323.0126°
Eccentric anomaly
Unknown
Mean motion
3.56478 °/min
Orbital period
100.99 mins
BSTAR
0.00057685
Loading maneuver chart data...
Loading SW <> Apogee altitude chart data...
Loading historical data...
Loading historical data...
Loading historical data...
Loading historical data...
Loading historical data...
Loading historical data...
Loading historical data...

FENGYUN 1C Visibility forecast

Observer location: undefined°, undefined°

Span
Click to sort rows by Start time (UTC) header in descending order
Start Az.
Max El. time (UTC)
Max El. Az.
Max El.
End time (UTC)
End Az.
8 mins2025-07-06 03:08:39.557Z115.83° SE2025-07-06 03:12:39.557Z64.494° ENE22.321°2025-07-06 03:16:39.557Z13.603° NNE
8 mins2025-07-06 04:48:39.557Z197.956° SSW2025-07-06 04:52:39.557Z275.485° WNW33.408°2025-07-06 04:56:39.557Z329.618° NNW
8 mins2025-07-06 17:04:39.557Z19.906° NNE2025-07-06 17:08:39.557Z148.881° SSE43.128°2025-07-06 17:12:39.557Z188.141° SSW
|